Wind_Speed
35 35 33 37 37 37 34 36 28 26 23 21 19 17 15 14 14 14 15 16 18 20 22 24 26 27 29 25 29 30 30 32 32 35 36 33 33 31 38 39 34 42 46 41 43 44 45
38 38 34 33 37 35 36 37 34 28 25 22 20 18 16 14 14 15 15 18 20 22 23 26 28 29 29 33 29 29 34 41 40 37 35 33 33 26 38 41 38 42 32 44 44 48 46
39 41 40 36 30 32 33 37 40 38 25 23 19 18 16 15 14 15 16 19 22 23 24 27 30 33 33 36 36 40 40 36 34 36 38 34 31 31 32 36 28 30 37 47 51 52 42
44 43 34 36 35 35 36 36 38 38 38 22 20 19 16 15 15 17 17 19 23 24 24 26 31 34 37 34 25 27 35 35 34 36 41 40 34 36 38 40 45 40 37 40 55 49 46
48 46 44 43 39 37 37 37 39 38 34 23 21 19 16 15 17 17 18 20 23 23 24 28 32 32 26 24 31 30 36 36 35 33 35 33 23 27 32 44 45 44 37 38 48 37 35
48 49 46 43 44 36 39 41 39 37 25 22 22 18 15 15 17 17 19 20 24 22 24 27 27 29 21 30 32 24 17 19 26 28 31 28 28 30 32 29 31 36 35 39 37 49 36
54 53 51 46 47 38 39 39 35 32 26 24 23 17 14 14 17 19 19 21 22 21 25 24 26 25 26 31 28 25 27 27 27 26 27 20 26 38 36 35 32 37 38 38 43 45 31
54 59 58 53 50 40 45 41 34 29 26 25 22 16 14 15 18 20 21 22 21 23 22 18 16 24 26 32 39 37 20 21 23 30 28 29 34 26 31 40 43 38 37 40 41 36 35
57 58 60 59 56 42 42 42 37 28 28 26 20 15 17 12 19 19 20 21 22 24 18 8 16 23 25 33 37 23 19 23 34 38 35 34 42 38 36 38 33 38 39 37 32 32 32
61 61 59 63 58 42 43 36 34 30 31 28 20 20 11 18 17 16 18 20 21 18 3 10 15 13 25 25 16 33 24 28 29 35 35 39 40 26 22 27 26 35 28 35 36 33 25
59 65 60 60 57 49 39 35 31 35 32 27 22 16 18 15 14 14 15 17 16 9 1 10 16 21 20 21 24 24 15 19 19 20 27 41 31 28 26 22 18 31 28 23 24 34 25
61 62 68 58 57 47 41 32 39 35 30 25 21 20 15 12 13 13 13 13 9 2 2 7 17 25 26 23 16 25 22 17 18 20 14 18 13 17 14 11 15 22 22 23 17 27 14
65 59 65 61 57 43 37 35 38 34 30 27 24 19 14 11 12 11 10 7 2 1 6 7 21 24 27 32 23 26 24 26 17 12 18 20 9 5 11 16 20 24 24 4 2 5 4
60 64 61 54 54 45 42 40 38 36 32 28 23 17 14 10 9 9 5 1 3 2 5 11 19 18 25 35 26 25 18 22 20 14 17 11 11 9 8 15 18 11 20 7 4 3 3
62 73 52 52 44 39 42 41 40 36 33 28 22 17 13 10 8 7 2 2 1 4 8 14 17 15 24 30 25 24 24 24 15 18 19 12 11 27 24 20 12 5 20 20 8 6 3
57 63 54 48 44 41 44 42 41 37 33 27 22 16 13 10 9 3 5 4 3 1 9 8 8 11 24 30 24 23 24 14 16 14 11 13 20 8 3 3 10 15 12 8 5 1 2
65 62 50 46 47 46 47 43 40 36 31 26 21 16 16 10 6 8 5 5 2 3 5 7 7 13 21 27 28 20 20 8 19 22 10 18 7 9 4 3 1 1 11 7 2 3 1
59 50 52 51 48 49 47 42 38 36 29 24 20 16 13 10 9 10 5 6 1 3 2 5 4 12 19 24 16 15 21 19 17 19 20 9 8 7 10 14 14 6 4 8 2 1 6
47 52 48 51 49 49 41 43 39 32 28 24 19 16 13 10 10 13 9 7 2 2 3 6 7 12 17 20 12 15 20 23 15 16 18 13 6 9 8 11 7 11 11 8 11 12 6
46 44 49 49 43 42 44 41 35 31 27 24 21 15 14 12 12 11 10 9 5 2 1 1 5 12 16 21 17 13 26 25 10 14 13 7 8 11 8 18 24 11 6 8 13 4 20
43 41 43 39 41 43 41 37 34 30 27 24 20 15 12 11 11 9 8 7 5 2 1 4 6 10 16 18 21 15 26 26 8 13 10 10 9 11 8 7 12 12 18 10 14 11 20
48 42 39 42 42 42 36 35 32 29 26 23 22 15 15 11 8 7 5 3 1 5 7 5 10 12 14 15 19 28 24 14 14 17 17 12 16 17 29 36 39 37 39 41 38 29 27
37 36 37 40 39 36 36 34 31 27 25 24 20 15 12 13 13 8 6 5 4 7 2 4 10 16 16 13 18 17 10 12 12 15 16 16 19 14 4 8 7 31 26 32 29 27 21
33 36 34 36 35 34 34 32 29 26 24 21 16 14 13 15 12 9 8 8 7 5 5 9 13 17 16 15 14 11 11 4 7 12 7 13 16 5 5 4 6 10 9 24 26 22 19
32 29 32 29 30 31 32 30 27 25 22 19 17 15 16 19 18 14 14 12 8 9 10 14 17 21 20 12 8 2 4 3 7 9 20 8 8 2 3 9 15 16 13 12 18 23 16
29 26 28 30 31 30 29 27 25 23 22 19 17 15 16 19 20 16 13 9 6 8 10 13 14 16 13 6 4 5 3 9 4 5 9 3 8 5 3 5 4 12 4 6 10 17 15
24 25 28 28 28 28 27 25 24 23 20 18 15 14 16 18 17 17 13 7 6 6 8 9 9 2 2 2 4 6 4 7 6 9 15 8 7 15 14 6 7 11 6 6 4 3 9
27 28 28 27 27 27 25 24 23 21 19 16 13 13 14 14 10 10 9 6 5 4 7 9 3 5 3 4 4 3 2 8 6 13 7 15 7 9 6 5 3 14 4 5 9 7 5
24 24 26 26 23 24 25 24 22 20 17 14 12 10 11 11 8 8 8 7 5 5 4 6 3 5 6 5 4 2 7 5 10 4 9 8 11 7 6 7 7 9 13 10 8 6 4
Wind_Direction
288 285 283 290 281 281 284 287 285 284 273 267 263 258 257 259 268 279 291 301 308 312 316 314 312 313 318 321 314 306 301 298 293 285 281 276 267 265 266 269 265 252 260 261 265 260 256
272 280 276 287 280 285 281 281 280 273 268 263 258 253 250 257 268 282 296 304 309 311 316 312 310 309 312 313 306 300 291 289 283 278 274 271 268 259 261 257 253 257 258 256 252 253 254
276 277 270 273 280 284 283 280 289 281 256 258 251 247 250 259 272 283 295 305 308 312 314 310 308 311 314 308 304 295 288 285 278 273 268 260 260 254 253 265 265 262 261 256 248 249 250
270 272 271 274 269 280 280 284 287 281 272 244 240 241 247 258 271 282 295 303 304 309 306 307 307 309 310 308 301 299 303 302 294 280 270 258 250 245 248 258 261 265 262 264 244 248 247
265 265 269 270 272 271 282 277 281 280 265 229 233 238 243 257 271 284 296 301 300 305 307 309 304 308 316 311 312 315 313 308 295 279 259 257 256 260 259 261 271 265 265 271 270 253 260
256 263 265 266 268 273 276 271 279 279 240 224 228 231 242 258 274 288 297 299 301 307 307 314 313 317 309 312 317 340 311 316 314 299 287 269 253 255 250 259 258 267 260 265 266 260 269
259 260 260 261 271 264 269 267 270 270 221 219 224 225 240 262 283 292 297 300 303 316 322 319 307 307 318 330 331 340 332 298 291 283 294 288 261 257 261 261 275 271 269 262 266 259 272
253 253 256 263 262 263 268 260 260 243 214 214 217 220 244 262 278 295 302 308 316 321 327 312 315 337 341 331 325 332 318 302 294 287 291 294 276 273 281 264 267 270 273 261 267 259 261
249 251 257 258 261 255 266 254 260 214 208 210 213 220 233 261 274 287 303 310 323 327 324 331 345 345 340 328 322 334 312 298 289 281 279 280 280 288 292 276 270 262 261 268 262 272 260
250 248 251 258 262 253 257 251 258 202 205 209 201 219 233 252 271 293 304 316 322 330 239 2 351 335 335 330 330 330 309 296 290 283 279 274 282 282 286 272 257 262 261 261 271 260 260
237 253 253 257 264 256 245 243 204 197 204 198 205 211 230 249 272 292 305 311 326 335 332 348 347 340 340 357 333 349 359 340 325 305 270 278 282 280 284 276 265 261 270 272 265 252 266
238 244 252 251 253 245 230 229 194 198 191 199 202 213 224 247 274 289 306 317 333 295 284 351 345 341 349 0 0 353 21 354 334 324 328 328 305 282 283 281 252 273 262 270 272 240 245
227 243 243 252 251 246 223 199 185 187 190 196 205 215 227 241 269 287 302 339 222 169 324 323 347 352 4 1 6 4 18 30 1 314 338 346 358 295 286 283 271 270 264 276 265 227 231
231 244 241 243 241 228 183 177 182 186 192 196 207 208 224 243 263 283 305 0 207 260 323 327 339 346 2 2 3 356 20 22 24 20 341 338 321 318 280 275 268 301 218 200 261 167 155
227 231 242 241 231 216 176 180 185 191 189 199 202 206 217 237 252 255 179 201 174 321 320 323 328 344 356 358 341 352 10 15 14 4 6 333 292 308 280 279 242 249 216 224 280 278 75
233 224 233 226 207 181 180 181 188 186 193 195 198 201 216 224 234 202 177 172 178 315 305 327 323 334 338 343 347 0 5 6 10 352 320 307 293 12 32 281 233 241 245 218 231 23 258
215 222 210 200 178 177 175 180 184 192 194 193 195 194 201 215 206 179 201 174 136 292 325 347 337 316 344 338 340 353 353 9 2 352 15 332 310 320 300 49 295 301 214 215 222 240 70
196 189 186 174 173 172 177 184 189 193 191 194 194 195 202 201 181 190 176 167 197 320 359 17 15 358 346 339 329 343 347 347 358 356 344 345 299 309 300 276 269 284 276 240 242 250 232
181 179 170 172 175 176 183 183 191 191 190 192 194 197 195 207 200 192 186 205 227 186 93 17 358 348 337 342 331 334 348 3 358 358 347 331 315 317 317 310 299 241 235 237 239 239 311
189 181 170 173 174 180 180 189 189 189 190 189 192 189 196 193 190 198 193 195 176 139 163 326 315 314 328 335 334 322 333 346 340 355 348 326 299 323 277 286 292 279 220 222 238 58 97
169 172 169 173 178 181 186 190 189 188 190 191 194 196 191 194 181 181 185 187 192 225 220 223 294 326 338 338 335 330 340 345 38 20 7 340 322 330 79 53 114 102 92 101 156 133 102
168 165 175 178 177 183 191 190 190 190 191 191 198 194 190 192 165 162 166 159 207 261 284 279 307 315 323 327 321 319 336 357 7 31 22 15 11 93 85 78 83 78 72 93 86 81 91
165 171 175 175 184 189 189 190 190 190 192 194 199 194 178 181 156 159 178 202 272 279 235 314 296 297 311 318 323 316 321 338 327 337 3 25 351 16 37 348 22 49 58 80 86 84 83
173 173 176 183 186 187 187 189 190 192 196 199 198 192 182 171 165 181 214 251 245 195 276 266 279 284 298 324 325 308 302 352 340 330 329 360 355 2 354 15 51 75 80 66 77 81 85
170 173 179 188 184 185 189 189 191 193 196 196 193 190 187 179 178 182 219 229 229 239 252 271 282 289 305 333 348 349 348 0 340 31 11 16 337 342 339 64 132 36 35 70 64 58 60
168 175 184 190 188 183 186 188 191 193 198 193 191 189 190 197 198 212 222 247 267 279 279 290 291 291 309 319 18 11 2 352 343 356 8 314 50 56 36 56 56 7 32 138 106 53 59
174 178 183 182 178 179 184 186 191 196 195 191 191 191 192 204 214 220 234 258 287 306 326 333 325 293 319 25 73 51 360 355 9 14 1 28 36 43 62 93 39 21 75 129 58 75 72
171 183 178 188 184 182 182 187 193 195 196 188 185 190 194 204 220 224 228 249 255 308 337 342 323 18 49 48 56 79 3 10 1 33 23 30 16 15 38 68 20 30 98 173 120 123 96
171 167 167 170 173 183 189 189 192 194 190 183 185 184 188 191 203 216 223 225 220 309 324 348 38 23 24 52 43 35 87 40 39 29 55 37 39 54 70 95 65 56 72 94 114 112 79
Height
3106 3109 3109 3108 3109 3108 3108 3108 3108 3108 3107 3107 3107 3107 3107 3107 3107 3106 3105 3103 3102 3099 3098 3095 3091 3088 3085 3090 3088 3082 3080 3078 3077 3074 3073 3072 3070 3071 3066 3065 3066 3058 3056 3062 3062 3064 3060
3097 3099 3102 3102 3103 3102 3102 3103 3102 3103 3103 3103 3103 3104 3104 3104 3103 3102 3101 3100 3097 3096 3094 3089 3084 3082 3084 3082 3080 3077 3072 3068 3064 3062 3060 3061 3060 3062 3054 3053 3053 3051 3052 3048 3051 3049 3051
3090 3090 3092 3095 3095 3097 3097 3097 3096 3096 3097 3099 3100 3100 3100 3100 3100 3099 3098 3096 3093 3092 3090 3084 3079 3076 3076 3070 3068 3062 3061 3059 3057 3054 3050 3050 3052 3051 3049 3044 3044 3044 3040 3038 3036 3036 3041
3080 3082 3084 3087 3087 3089 3090 3091 3090 3090 3089 3092 3094 3094 3095 3096 3096 3095 3094 3092 3088 3087 3083 3080 3074 3070 3068 3060 3057 3054 3056 3053 3051 3047 3044 3042 3045 3040 3040 3038 3033 3034 3032 3024 3021 3032 3033
3072 3072 3076 3079 3079 3080 3082 3082 3082 3082 3081 3085 3088 3090 3091 3091 3091 3090 3090 3088 3083 3082 3077 3073 3068 3064 3059 3056 3051 3051 3048 3041 3037 3039 3038 3036 3038 3036 3034 3030 3027 3024 3021 3022 3015 3024 3027
3060 3062 3066 3068 3070 3070 3072 3074 3075 3075 3076 3080 3082 3084 3086 3086 3086 3086 3085 3083 3078 3077 3072 3067 3058 3059 3055 3051 3048 3046 3041 3037 3033 3029 3027 3031 3030 3027 3024 3026 3018 3018 3020 3018 3016 3011 3021
3048 3050 3054 3058 3059 3062 3063 3066 3067 3068 3072 3076 3078 3080 3082 3082 3081 3081 3081 3078 3076 3072 3064 3060 3056 3052 3050 3044 3041 3039 3036 3030 3029 3026 3022 3022 3020 3017 3018 3019 3017 3013 3012 3009 3007 3008 3013
3035 3037 3041 3047 3049 3051 3055 3057 3059 3061 3067 3070 3073 3074 3076 3077 3077 3076 3074 3070 3068 3065 3059 3055 3051 3047 3043 3038 3031 3031 3030 3026 3023 3019 3018 3016 3009 3012 3012 3012 3011 3007 3005 3003 3001 3000 3006
3021 3024 3029 3033 3037 3041 3047 3047 3051 3055 3062 3064 3067 3069 3072 3072 3073 3071 3068 3064 3061 3057 3055 3050 3047 3044 3042 3038 3028 3025 3023 3019 3014 3010 3010 3006 2999 3005 3003 2999 3000 2997 2999 2998 2998 2997 2999
3008 3009 3017 3022 3027 3029 3035 3039 3043 3047 3056 3058 3061 3065 3067 3069 3070 3066 3063 3060 3057 3053 3049 3050 3046 3044 3042 3034 3027 3024 3019 3013 3006 3001 3002 2994 2993 2995 2995 2991 2993 2988 2994 2993 2993 2996 2994
2990 2998 3004 3011 3017 3017 3024 3029 3037 3044 3049 3054 3057 3060 3063 3063 3063 3062 3061 3057 3053 3050 3050 3047 3044 3042 3039 3035 3026 3020 3015 3007 3003 2997 2998 2982 2987 2988 2987 2987 2987 2980 2988 2987 2988 2989 2991
2974 2983 2991 2999 3007 3010 3012 3019 3031 3040 3043 3050 3053 3055 3056 3058 3058 3058 3055 3052 3050 3051 3046 3044 3043 3038 3031 3030 3025 3017 3011 3005 2999 2993 2988 2983 2982 2983 2983 2982 2984 2983 2983 2983 2982 2983 2983
2958 2969 2978 2989 2996 2999 3003 3010 3024 3034 3039 3045 3048 3049 3053 3052 3054 3052 3051 3050 3050 3047 3046 3044 3040 3036 3031 3024 3020 3014 3009 3005 2999 2995 2987 2983 2979 2980 2980 2979 2980 2981 2983 2982 2984 2980 2975
2949 2958 2967 2977 2986 2991 2997 3007 3021 3028 3033 3040 3043 3044 3047 3048 3048 3047 3046 3049 3046 3044 3042 3041 3040 3038 3032 3024 3019 3014 3009 3004 3000 2996 2988 2986 2982 2980 2978 2978 2977 2975 2977 2977 2973 2969 2972
2937 2946 2959 2969 2977 2984 2991 3004 3015 3022 3028 3034 3037 3040 3041 3044 3044 3044 3045 3045 3043 3041 3040 3038 3036 3034 3031 3029 3024 3014 3009 3005 3001 2997 2995 2989 2981 2978 2975 2974 2977 2973 2973 2977 2976 2972 2972
2929 2939 2951 2960 2969 2975 2990 3000 3010 3017 3021 3027 3032 3036 3038 3039 3040 3040 3042 3042 3041 3039 3038 3037 3038 3036 3032 3027 3022 3016 3011 3007 3001 2998 2995 2989 2980 2975 2975 2974 2973 2974 2976 2977 2976 2979 2980
2917 2931 2942 2952 2960 2974 2985 2996 3007 3012 3018 3022 3026 3031 3034 3036 3036 3038 3039 3039 3037 3036 3036 3037 3037 3037 3034 3027 3021 3016 3012 3006 3001 2996 2992 2989 2985 2979 2977 2976 2976 2977 2975 2975 2976 2977 2977
2912 2924 2934 2944 2959 2969 2983 2994 3000 3007 3013 3019 3022 3027 3029 3032 3034 3034 3035 3036 3036 3035 3035 3036 3036 3035 3032 3027 3019 3017 3012 3006 3002 2997 2992 2991 2985 2983 2979 2976 2977 2976 2976 2975 2975 2977 2977
2908 2922 2931 2943 2955 2968 2980 2990 2996 3003 3009 3014 3018 3022 3025 3028 3029 3030 3032 3033 3034 3033 3034 3034 3035 3033 3030 3026 3021 3015 3011 3006 3001 2997 2993 2990 2988 2983 2977 2976 2972 2973 2974 2974 2973 2973 2971
2911 2921 2933 2945 2956 2967 2978 2985 2991 2998 3005 3010 3015 3018 3022 3024 3026 3027 3028 3030 3032 3031 3032 3033 3032 3032 3026 3022 3020 3015 3011 3004 3000 2996 2992 2990 2988 2987 2983 2976 2973 2971 2972 2971 2973 2971 2975
2916 2926 2936 2947 2958 2968 2975 2981 2988 2994 3001 3006 3010 3014 3018 3020 3023 3025 3026 3028 3029 3029 3032 3031 3030 3029 3025 3019 3015 3012 3008 3002 2999 2995 2992 2989 2986 2981 2977 2971 2970 2971 2969 2967 2969 2973 2978
2916 2927 2938 2947 2956 2966 2973 2979 2984 2991 2997 3003 3007 3010 3014 3017 3020 3023 3024 3025 3026 3028 3029 3028 3025 3024 3021 3019 3017 3010 3009 3005 3000 2996 2993 2990 2985 2982 2980 2978 2974 2976 2974 2975 2978 2982 2985
2919 2930 2938 2947 2957 2964 2970 2976 2982 2989 2994 2998 3004 3008 3011 3015 3017 3020 3021 3023 3024 3025 3025 3025 3021 3019 3017 3016 3013 3010 3008 3004 3002 2998 2994 2992 2985 2984 2985 2982 2981 2981 2988 2984 2983 2986 2990
2923 2932 2941 2948 2955 2962 2967 2974 2981 2986 2992 2997 3001 3006 3009 3012 3015 3016 3019 3021 3021 3021 3022 3019 3019 3017 3015 3013 3010 3007 3005 3004 3003 3000 2996 2991 2990 2989 2988 2985 2991 2998 2996 2994 2990 2993 2993
2925 2933 2941 2947 2953 2960 2967 2973 2979 2985 2990 2995 2999 3003 3005 3009 3012 3014 3015 3019 3018 3019 3019 3015 3016 3014 3011 3011 3008 3006 3005 3004 3002 3000 2996 2994 2992 2990 2989 2988 2996 2996 2996 2996 2997 2998 2998
2925 2933 2941 2947 2953 2959 2966 2972 2978 2984 2988 2993 2996 3000 3003 3007 3010 3011 3013 3015 3016 3017 3016 3013 3013 3011 3011 3008 3007 3007 3006 3005 3003 3001 3000 2996 2993 2991 2989 2992 2997 3000 2997 2997 2997 3002 3003
2927 2933 2940 2946 2952 2958 2965 2971 2977 2982 2986 2991 2994 2997 3002 3004 3007 3009 3012 3013 3014 3014 3013 3010 3009 3009 3008 3007 3006 3007 3008 3007 3004 3003 3000 2997 2996 2994 2994 2997 3001 2999 2998 2998 3000 3010 3003
2928 2934 2941 2947 2953 2958 2964 2970 2976 2981 2985 2989 2993 2996 3000 3003 3006 3007 3009 3010 3012 3011 3010 3010 3009 3009 3007 3007 3007 3007 3008 3008 3005 3005 3003 3001 2999 2998 2999 3001 3006 3001 3002 3003 3006 3005 3005
2929 2934 2940 2946 2951 2959 2964 2970 2975 2980 2984 2987 2991 2995 2998 3001 3003 3004 3006 3009 3010 3009 3010 3008 3009 3009 3008 3008 3008 3008 3008 3009 3007 3006 3005 3005 3005 3004 3004 3008 3007 3006 3004 3004 3005 3006 3006